Flag for Russia Weather past 2 weeks in Kaliningrad, Russia

Now
70 °F

Passing clouds.


Feels Like: 70 °F
Forecast: 50 / 70 °F
Wind: 10 mph from Southeast

Location: Kaliningrad/Khrabrovo Airport

Current Time: Sep 18, 2014 at 5:18:04 PM

Latest Report: Sep 18, 2014 at 4:30 PM


Visibility: N/A

Pressure: 30.15 "Hg

Humidity: 40%

Dew point: 45 °F

Location of KaliningradLocation

Historic Weather in Kaliningrad — Graph

°F

Kaliningrad temperature yesterday

Maximum temperature yesterday: 68 °F (at 2:00 PM)
Minimum temperature yesterday: 45 °F (at 5:30 AM)
Average temperature yesterday: 56 °F

Past Weeks' High & Low Weather Summary

 TemperatureHumidityPressure
High75 °F (Sep 8, 1:30 PM)94% (Sep 4, 6:00 AM)30.42 "Hg (Sep 4, 6:00 AM)
Low43 °F (Sep 16, 5:00 AM)36% (Sep 5, 4:00 PM)29.86 "Hg (Sep 10, 7:00 AM)
Average59 °F75%30.15 "Hg
* Reported Sep 3 4:00 PM — Sep 18 4:00 PM, Kaliningrad, Weather by CustomWeather, © 2014

Note: Actual official high and low records may vary slightly from our data, if they occured in-between our weather recording intervals... More about our weather records

Advertising

Kaliningrad weather history for previous 24 hours

 ConditionsComfort  
Time TempWeatherWind HumidityBarometerVisibility
4:00 PM
Sep 18
70 °FPassing clouds.10 mph40%30.15 "HgN/A
3:30 PM70 °FPassing clouds.10 mph38%30.18 "HgN/A
3:00 PM70 °FPassing clouds.13 mph40%30.18 "HgN/A
2:30 PM70 °FPassing clouds.13 mph40%30.18 "HgN/A
2:00 PM70 °FScattered clouds.10 mph43%30.18 "HgN/A
1:30 PM68 °FScattered clouds.10 mph46%30.21 "HgN/A
1:00 PM68 °FPassing clouds.10 mph46%30.21 "HgN/A
12:30 PM66 °FPassing clouds.8 mph52%30.21 "HgN/A
12:00 PM66 °FPassing clouds.6 mph52%30.24 "HgN/A
11:30 AM64 °FPassing clouds.6 mph56%30.24 "HgN/A
11:00 AM61 °FPassing clouds.6 mph68%30.24 "HgN/A
10:30 AM59 °FSunny.6 mph72%30.24 "Hg10 mi
10:00 AM57 °FSunny.6 mph72%30.24 "Hg10 mi
9:30 AM55 °FSunny.6 mph77%30.24 "Hg10 mi
9:00 AM52 °FClear.3 mph82%30.24 "Hg5 mi
8:30 AM48 °FClear.3 mph87%30.24 "Hg5 mi
8:00 AM45 °FClear.3 mph93%30.24 "Hg5 mi
7:30 AM45 °FPassing clouds.3 mph93%30.24 "HgN/A
7:00 AM45 °FClear.3 mph87%30.21 "Hg10 mi
6:30 AM46 °FPassing clouds.3 mph87%30.21 "HgN/A
6:00 AM45 °FClear.1 mph93%30.24 "Hg10 mi
5:30 AM45 °FClear.3 mph87%30.24 "Hg10 mi
5:00 AM46 °FClear.1 mph87%30.24 "Hg10 mi
4:30 AM46 °FClear.3 mph87%30.24 "Hg10 mi
4:00 AM46 °FClear.1 mph87%30.24 "Hg10 mi
3:30 AM46 °FClear.3 mph87%30.24 "Hg10 mi
3:00 AM46 °FClear.3 mph87%30.24 "Hg10 mi
2:00 AM48 °FClear.3 mph82%30.24 "Hg10 mi
1:00 AM50 °FClear.3 mph76%30.24 "Hg10 mi
12:00 AM50 °FClear.6 mph82%30.24 "Hg10 mi
11:30 PM
Sep 17
52 °FClear.3 mph72%30.24 "Hg10 mi
11:00 PM52 °FClear.3 mph72%30.24 "Hg10 mi
10:30 PM54 °FClear.6 mph72%30.24 "Hg10 mi
10:00 PM52 °FClear.3 mph77%30.24 "Hg10 mi
9:30 PM54 °FPassing clouds.3 mph72%30.24 "HgN/A
9:00 PM55 °FSunny.1 mph67%30.24 "Hg10 mi
8:30 PM55 °FSunny.1 mph67%30.21 "Hg10 mi
8:00 PM59 °FSunny.3 mph63%30.21 "Hg10 mi
7:30 PM63 °FPassing clouds.3 mph56%30.21 "HgN/A
7:00 PM64 °FSunny.3 mph52%30.21 "Hg10 mi
6:30 PM66 °FSunny.6 mph49%30.21 "Hg10 mi
6:00 PM68 °FSunny.8 mph38%30.21 "Hg10 mi
5:30 PM68 °FPassing clouds.8 mph38%30.21 "HgN/A
5:00 PM68 °FPassing clouds.8 mph38%30.24 "HgN/A
Weather by CustomWeather, © 2014

See weather overviewHow to use our weather pages